TimeCST,TemperatureF,Dew PointF,Humidity,Sea Level PressureIn,VisibilityMPH,Wind Direction,Wind SpeedMPH,Gust SpeedMPH,PrecipitationIn,Events,Conditions,WindDirDegrees,DateUTC
12:53 AM,12.9,5.0,71,30.73,10.0,Variable,3.5,-,N/A,,Scattered Clouds,0,2013-11-12 06:53:00
1:03 AM,12.2,5.0,73,30.65,10.0,Calm,Calm,-,N/A,,Mostly Cloudy,0,2013-11-12 07:03:00
1:53 AM,12.0,5.0,73,30.72,10.0,Variable,3.5,-,N/A,,Overcast,0,2013-11-12 07:53:00
2:53 AM,12.0,5.0,73,30.74,10.0,Variable,3.5,-,N/A,,Overcast,0,2013-11-12 08:53:00
3:53 AM,10.9,6.1,81,30.76,8.0,Variable,3.5,-,0.00,Snow,Light Snow,0,2013-11-12 09:53:00
4:53 AM,10.0,5.0,80,30.76,10.0,Variable,3.5,-,0.00,,Overcast,0,2013-11-12 10:53:00
5:26 AM,10.4,5.0,79,30.67,10.0,Variable,3.5,-,N/A,,Scattered Clouds,0,2013-11-12 11:26:00
5:53 AM,10.0,5.0,80,30.76,10.0,Variable,3.5,-,N/A,,Clear,0,2013-11-12 11:53:00
6:53 AM,10.0,5.0,80,30.75,10.0,Calm,Calm,-,N/A,,Clear,0,2013-11-12 12:53:00
7:53 AM,10.9,6.1,81,30.76,10.0,Calm,Calm,-,N/A,,Clear,0,2013-11-12 13:53:00
8:53 AM,14.0,7.0,74,30.76,10.0,Variable,4.6,-,N/A,,Clear,0,2013-11-12 14:53:00
9:53 AM,17.1,8.1,68,30.75,10.0,Variable,6.9,-,N/A,,Clear,0,2013-11-12 15:53:00
10:53 AM,19.0,8.1,62,30.74,10.0,WSW,6.9,-,N/A,,Clear,250,2013-11-12 16:53:00
11:53 AM,23.0,6.1,48,30.71,10.0,Variable,4.6,-,N/A,,Clear,0,2013-11-12 17:53:00
12:53 PM,25.0,7.0,46,30.67,10.0,Variable,5.8,-,N/A,,Clear,0,2013-11-12 18:53:00
1:53 PM,26.1,5.0,41,30.65,10.0,SW,8.1,-,N/A,,Clear,230,2013-11-12 19:53:00
2:53 PM,26.1,5.0,41,30.63,10.0,Variable,5.8,-,N/A,,Clear,0,2013-11-12 20:53:00
3:53 PM,25.0,3.9,41,30.62,10.0,Variable,5.8,-,N/A,,Clear,0,2013-11-12 21:53:00
4:53 PM,24.1,3.0,40,30.62,10.0,Variable,3.5,-,N/A,,Clear,0,2013-11-12 22:53:00
5:53 PM,23.0,3.9,44,30.60,10.0,Variable,4.6,-,N/A,,Clear,0,2013-11-12 23:53:00
6:53 PM,21.9,5.0,48,30.57,10.0,SSW,3.5,-,N/A,,Clear,200,2013-11-13 00:53:00
7:53 PM,21.0,6.1,53,30.56,10.0,SW,4.6,-,N/A,,Clear,220,2013-11-13 01:53:00
8:53 PM,21.0,7.0,55,30.54,10.0,SW,4.6,-,N/A,,Clear,220,2013-11-13 02:53:00
9:53 PM,21.0,7.0,55,30.51,10.0,SW,4.6,-,N/A,,Clear,220,2013-11-13 03:53:00
10:53 PM,19.9,8.1,60,30.49,10.0,SSW,4.6,-,N/A,,Clear,210,2013-11-13 04:53:00
11:53 PM,19.9,9.0,62,30.47,10.0,SSW,4.6,-,N/A,,Clear,200,2013-11-13 05:53:00